SITRO-AIS 10 (BURDAEV)

Last updated on Wed Nov 05 2025 00:03:48 GMT+0000 (Coordinated Universal Time)

1 57199U 23091AK 25308.59925340 .00017221 00000+0 61292-3 0 9996 2 57199 97.5416 9.9528 0009185 145.9988 214.1842 15.28990393130336
UTC large
Height (km)
Speed (km/s)
/
Latitude / Longitude
Inclination (degrees)
Orbital Period (minutes)
Azimuth
Elevation
Range (km)
Doppler Factor

Next 0 passes for location: London (51.5072 / 0.1276)

Sorry there are no passes over London.